Location: Central Coast
(33.3208°S, 151.2336°E)
Time: 14:09:49
(UTC+11:00)

OTV 5 (USA 277) - Visible Passes

Search period start: 18 February 2018 00:00
Search period end: 28 February 2018 00:00
Orbit: 404 x 417 km, 43.0° (Epoch: 07 September)

Date Brightness Start Highest point End Pass type
(mag) Time Alt. Az. Time Alt. Az. Time Alt. Az.
18 Feb ? 20:46:51 10° WSW 20:49:46 25° SSW 20:52:40 10° SE visible
18 Feb ? 22:25:40 10° SW 22:26:22 13° SSW 22:26:22 13° SSW visible
19 Feb ? 21:34:19 10° SW 21:36:33 16° S 21:37:40 14° SSE visible
20 Feb ? 20:42:51 10° SW 20:45:17 18° S 20:47:42 10° SE visible
20 Feb ? 22:21:00 10° SW 22:21:38 13° SSW 22:21:38 13° SSW visible
21 Feb ? 21:29:54 10° SW 21:32:10 16° S 21:32:48 16° SSE visible
22 Feb ? 20:38:40 10° SW 20:40:53 16° S 20:43:05 10° SE visible
22 Feb ? 22:16:02 10° SW 22:16:41 14° SW 22:16:41 14° SW visible
23 Feb ? 21:25:03 10° SW 21:27:44 21° SSE 21:27:49 21° SSE visible
24 Feb ? 20:34:01 10° SW 20:36:29 18° S 20:38:56 10° SE visible
24 Feb ? 22:10:58 10° SW 22:11:42 15° SW 22:11:42 15° SW visible
25 Feb ? 21:20:00 10° SW 21:22:52 34° S 21:22:52 34° S visible
26 Feb ? 20:29:02 10° SW 20:32:00 26° SSE 20:34:05 15° ESE visible
26 Feb ? 22:06:08 10° WSW 22:06:49 15° WSW 22:06:49 15° WSW visible
27 Feb ? 21:15:01 10° WSW 21:18:05 68° SW 21:18:05 68° SW visible
